Temp
80 81 80 80 77 80 79 79 80 79 79 80 81 79 80 81 84 83 80 75 74 73 74 76 77 76 76 75 74 74 74 74 73 73 73 73 73 74 74 74 74 74 73
80 81 78 77 78 78 81 75 79 79 80 80 80 79 80 82 81 80 84 83 73 72 72 75 76 76 76 76 75 74 74 73 72 71 70 71 72 73 74 74 73 73 72
79 77 77 77 75 77 76 75 76 77 78 79 77 78 79 78 77 79 81 83 83 72 73 74 76 76 75 76 76 75 73 73 72 71 70 70 72 72 73 73 73 72 72
77 76 74 72 71 74 74 74 75 76 76 75 74 74 76 77 76 79 81 83 84 85 77 75 75 75 75 76 77 75 73 72 71 70 70 70 71 72 73 73 72 72 71
78 75 73 69 73 73 72 73 76 76 71 70 69 70 75 77 79 81 81 81 80 83 83 76 74 73 74 76 75 75 73 71 70 70 70 70 71 72 72 72 72 71 71
78 74 72 72 70 71 71 72 73 72 71 67 69 71 74 80 81 81 77 81 78 80 81 80 80 80 73 74 74 74 73 71 70 70 69 70 71 72 72 72 71 70 70
76 72 70 71 71 70 72 74 69 68 67 68 67 67 70 75 75 74 77 77 77 81 80 79 77 77 70 71 71 73 73 72 72 70 69 70 71 72 71 71 70 70 70
74 72 70 70 73 71 73 72 69 67 66 68 68 69 68 67 74 74 77 74 74 79 81 80 79 74 71 69 70 72 72 73 72 70 70 70 71 71 71 70 70 70 69
76 74 72 72 71 75 72 69 69 68 65 68 73 71 67 70 73 70 72 75 75 76 76 80 78 73 69 71 71 71 72 72 72 71 72 71 71 71 71 70 70 70 69
76 74 72 71 73 73 68 70 72 70 69 68 74 76 75 79 73 65 68 72 76 75 72 77 74 73 72 71 72 70 69 70 70 72 72 72 72 71 70 70 70 70 70
72 75 75 75 73 69 70 72 72 70 71 68 70 71 72 74 78 72 69 66 70 75 69 73 68 68 70 71 70 68 68 67 69 70 70 70 70 70 71 70 70 70 70
70 75 76 74 73 72 73 74 74 73 71 71 71 71 70 69 69 70 68 69 65 64 66 67 68 65 65 66 67 67 65 65 65 66 66 67 68 70 70 71 71 70 71
70 74 75 74 73 74 75 75 74 72 67 72 72 72 74 74 72 76 70 70 65 62 63 68 66 66 67 65 65 65 65 63 62 62 63 65 67 69 69 70 70 71 71
74 75 75 74 75 76 76 75 72 72 72 71 72 74 74 73 75 73 69 68 61 64 64 61 65 65 65 64 65 65 63 62 61 60 61 63 64 66 66 67 68 69 69
75 75 75 75 76 76 76 75 72 73 73 72 68 63 71 77 75 73 70 69 70 63 61 63 63 64 64 63 64 64 63 61 61 59 60 61 62 63 64 64 65 66 66
76 75 75 75 76 76 75 74 73 75 73 73 74 70 72 72 69 71 71 73 69 70 61 64 62 63 63 63 64 63 63 62 60 59 60 60 60 61 61 62 63 64 66
76 77 77 75 76 75 75 73 74 75 72 72 74 74 69 72 73 72 70 69 69 67 61 61 61 62 62 62 63 63 64 63 61 60 60 60 59 59 60 61 62 64 65
77 78 78 76 76 76 75 75 75 75 73 72 67 67 69 69 68 69 71 69 66 63 61 58 60 60 61 62 63 62 62 63 63 60 59 58 58 58 59 61 60 57 56
75 78 78 74 75 75 74 75 74 73 71 68 68 69 67 67 69 70 67 65 66 63 62 60 58 60 61 61 61 61 61 61 63 61 58 57 58 58 56 55 54 53 51
75 76 74 73 73 72 71 70 71 72 69 70 71 72 72 70 70 63 66 65 65 61 61 60 59 59 60 60 61 58 58 60 62 70 62 61 60 55 54 53 53 52 50
73 73 70 69 69 69 71 69 69 69 70 71 71 72 72 67 62 62 67 66 63 61 60 59 58 58 58 58 58 59 59 61 66 71 70 70 70 68 64 56 55 52 50
72 71 67 68 67 71 51 55 65 68 68 67 66 68 70 63 59 53 54 57 62 61 60 59 59 58 58 59 59 59 59 62 63 73 71 69 72 68 68 63 50 49 49
64 70 69 68 66 68 50 51 55 70 67 68 68 65 65 65 64 64 53 53 53 52 58 62 60 61 59 61 61 61 64 67 67 69 69 64 70 65 63 57 48 48 47
65 63 63 62 62 67 49 49 52 71 68 66 66 65 66 62 61 61 62 63 61 60 62 62 62 62 63 67 65 64 68 69 69 71 72 65 68 64 62 59 48 47 46
71 69 67 61 58 61 47 47 59 69 65 63 67 64 65 62 48 51 62 62 59 57 50 50 52 53 51 53 61 72 68 70 67 69 72 69 67 64 63 61 57 47 46
73 73 67 64 55 58 44 46 58 70 65 63 69 63 52 57 47 51 65 64 67 67 68 65 62 57 60 57 53 72 72 70 72 69 71 66 63 64 62 67 64 59 58
MSLP
1010.64 1010.62 1010.73 1010.85 1011.10 1010.92 1010.89 1011.12 1010.98 1011.12 1011.10 1011.12 1010.89 1011.06 1010.87 1010.90 1010.71 1011.15 1011.54 1012.13 1012.81 1013.04 1013.01 1012.88 1012.94 1013.42 1013.77 1014.25 1014.72 1015.46 1016.12 1016.74 1017.15 1017.71 1018.29 1018.50 1018.89 1019.06 1019.42 1019.76 1020.10 1020.54 1020.91
1010.39 1010.43 1010.63 1010.75 1010.69 1010.62 1010.44 1011.19 1010.64 1010.78 1010.75 1010.67 1010.57 1010.81 1010.65 1010.63 1010.92 1011.35 1011.20 1011.32 1012.18 1012.56 1012.69 1012.74 1012.95 1013.20 1013.61 1013.98 1014.58 1015.37 1016.13 1016.68 1017.11 1017.69 1018.42 1018.60 1019.30 1019.20 1019.68 1020.12 1020.45 1020.76 1021.34
1010.21 1010.48 1010.43 1010.40 1010.54 1010.63 1010.85 1011.08 1010.86 1010.83 1010.85 1010.68 1010.65 1010.44 1010.66 1010.95 1011.30 1011.30 1011.48 1011.25 1010.95 1011.89 1012.31 1012.47 1012.56 1012.72 1013.26 1013.71 1014.32 1015.04 1015.83 1016.61 1017.20 1017.88 1018.32 1019.04 1019.36 1019.65 1019.97 1020.36 1020.81 1021.19 1021.55
1009.99 1010.17 1010.27 1010.39 1010.60 1010.60 1010.65 1010.79 1010.50 1010.35 1010.31 1010.41 1010.74 1010.82 1010.89 1010.95 1011.13 1011.01 1011.09 1010.87 1010.71 1010.62 1011.52 1011.93 1012.08 1012.40 1012.88 1013.34 1013.89 1014.80 1015.77 1016.53 1017.37 1018.03 1018.30 1019.16 1019.67 1019.77 1020.21 1020.56 1021.22 1021.49 1021.74
1009.37 1009.63 1009.85 1010.17 1010.08 1010.27 1010.31 1010.34 1010.05 1010.11 1010.39 1010.74 1010.98 1011.02 1010.80 1010.59 1010.54 1010.58 1010.57 1010.68 1011.11 1010.89 1010.84 1011.32 1011.58 1012.04 1012.67 1013.12 1013.90 1014.79 1015.64 1016.39 1017.20 1018.06 1018.34 1019.29 1019.64 1020.06 1020.42 1020.96 1021.41 1021.67 1022.17
1008.84 1009.32 1009.65 1009.77 1009.94 1009.97 1010.07 1010.06 1009.92 1010.31 1010.30 1010.77 1010.72 1010.72 1010.53 1010.03 1010.19 1010.19 1010.77 1010.50 1010.85 1010.78 1010.71 1010.84 1011.14 1011.72 1012.58 1013.08 1013.73 1014.51 1015.45 1016.01 1017.15 1018.05 1018.48 1019.23 1019.84 1020.40 1020.79 1021.19 1021.68 1022.03 1022.35
1008.60 1009.08 1009.33 1009.43 1009.59 1009.67 1009.48 1009.48 1010.01 1010.17 1010.33 1010.57 1010.56 1010.75 1010.72 1010.61 1010.59 1010.73 1010.65 1010.77 1010.62 1010.11 1010.49 1010.52 1010.99 1011.40 1012.67 1012.83 1013.51 1014.14 1015.32 1016.09 1017.03 1017.59 1018.75 1019.27 1020.17 1020.52 1020.88 1021.51 1021.93 1022.28 1022.65
1008.40 1008.75 1008.96 1009.05 1009.02 1009.07 1009.17 1009.43 1009.75 1009.76 1010.14 1010.23 1009.73 1009.71 1009.86 1010.63 1010.26 1010.50 1010.50 1010.72 1010.69 1010.49 1010.29 1010.44 1010.66 1011.66 1012.58 1013.22 1013.91 1014.55 1015.34 1015.87 1017.01 1017.66 1018.77 1019.47 1020.25 1020.70 1021.19 1021.62 1022.04 1022.17 1022.76
1007.94 1008.23 1008.52 1008.67 1008.95 1008.66 1008.70 1009.15 1009.39 1009.49 1009.54 1009.69 1009.33 1008.88 1008.47 1008.05 1009.08 1010.42 1010.39 1010.42 1010.55 1010.63 1010.75 1010.42 1010.77 1011.82 1012.83 1013.28 1014.18 1014.91 1015.37 1016.03 1016.82 1017.73 1018.85 1019.82 1020.30 1020.90 1021.29 1021.82 1021.97 1022.18 1022.98
1007.64 1007.95 1008.28 1008.47 1008.36 1008.42 1008.92 1008.87 1008.87 1009.09 1009.19 1008.95 1008.95 1008.73 1008.57 1007.67 1007.98 1009.80 1010.51 1010.34 1010.35 1010.49 1010.95 1011.01 1011.39 1011.97 1012.19 1013.31 1014.03 1014.54 1015.39 1016.23 1017.02 1018.01 1019.09 1019.87 1020.44 1020.93 1021.43 1021.91 1022.08 1022.45 1023.02
1007.75 1007.72 1007.78 1007.82 1007.98 1008.49 1008.56 1008.40 1008.62 1009.04 1009.01 1009.07 1008.88 1008.94 1008.81 1008.71 1008.24 1008.46 1009.04 1010.46 1010.72 1010.76 1011.47 1011.44 1012.27 1012.70 1013.05 1013.24 1014.00 1014.55 1015.57 1016.45 1017.57 1018.34 1019.22 1019.90 1020.39 1020.94 1021.25 1021.87 1022.18 1022.51 1023.08
1007.62 1007.50 1007.42 1007.77 1007.89 1008.05 1008.06 1008.17 1008.42 1008.66 1008.84 1008.89 1009.10 1009.01 1008.85 1008.81 1008.60 1008.65 1008.94 1009.65 1010.73 1011.59 1011.93 1012.28 1012.74 1013.45 1013.79 1014.13 1013.62 1015.00 1016.06 1016.94 1017.93 1018.87 1019.61 1020.08 1020.54 1020.87 1021.56 1021.82 1022.12 1022.75 1023.00
1007.24 1007.13 1007.31 1007.46 1007.66 1007.74 1007.92 1007.99 1008.32 1008.61 1009.12 1008.92 1008.88 1008.82 1008.86 1008.83 1009.02 1008.71 1009.06 1009.53 1010.67 1011.77 1012.25 1012.51 1012.99 1013.42 1013.96 1014.53 1014.62 1015.45 1016.39 1017.36 1018.58 1019.24 1019.65 1020.28 1020.54 1021.16 1021.64 1021.68 1022.35 1022.82 1023.23
1006.89 1007.01 1007.30 1007.48 1007.39 1007.56 1007.85 1008.07 1008.44 1008.61 1008.75 1008.86 1008.91 1008.77 1008.88 1009.00 1008.96 1008.89 1009.19 1009.71 1010.67 1011.28 1012.21 1012.75 1013.50 1013.83 1014.19 1014.82 1015.68 1016.34 1017.32 1018.27 1019.01 1019.45 1019.98 1020.43 1021.00 1021.46 1021.52 1022.15 1022.63 1023.09 1023.34
1006.84 1007.11 1007.21 1007.32 1007.26 1007.47 1007.79 1008.01 1008.32 1008.45 1008.66 1008.78 1009.23 1009.55 1009.18 1009.07 1009.29 1009.05 1009.44 1009.86 1009.90 1010.69 1011.83 1012.84 1013.29 1013.82 1014.29 1015.15 1016.09 1017.06 1017.85 1018.79 1019.25 1019.85 1020.38 1020.98 1021.34 1021.44 1021.92 1022.47 1022.88 1023.20 1023.40
1006.73 1007.07 1007.19 1007.24 1007.29 1007.53 1007.80 1008.18 1008.33 1008.30 1008.48 1008.79 1008.79 1009.27 1009.17 1009.19 1009.43 1009.61 1009.95 1010.00 1010.27 1010.34 1011.36 1012.35 1012.69 1013.66 1014.29 1015.48 1016.42 1017.34 1018.31 1019.04 1019.77 1020.43 1020.82 1021.01 1021.35 1021.64 1022.42 1022.76 1023.01 1023.36 1023.52
1006.76 1006.89 1007.05 1007.31 1007.32 1007.60 1007.85 1008.17 1008.24 1008.34 1008.66 1008.98 1009.05 1009.02 1009.72 1009.53 1009.41 1009.89 1010.22 1010.34 1010.43 1010.53 1011.50 1012.78 1012.71 1014.09 1014.73 1015.70 1016.85 1017.94 1018.72 1019.51 1020.39 1020.65 1020.81 1021.26 1021.70 1022.26 1022.68 1022.92 1023.06 1023.49 1023.54
1006.63 1006.81 1007.02 1007.33 1007.42 1007.63 1007.91 1008.09 1008.06 1008.27 1008.82 1009.24 1009.71 1009.84 1009.82 1010.09 1010.21 1010.17 1010.18 1010.70 1011.31 1011.53 1011.89 1012.72 1013.59 1014.30 1015.47 1016.46 1017.31 1018.22 1019.29 1020.05 1020.32 1020.91 1021.43 1021.92 1022.31 1022.59 1022.95 1023.21 1023.20 1023.74 1023.99
1006.78 1006.89 1007.09 1007.65 1007.81 1008.03 1008.29 1008.43 1008.57 1008.92 1009.28 1009.82 1009.90 1009.91 1010.21 1010.36 1010.41 1010.51 1010.92 1011.33 1011.89 1012.44 1012.97 1013.32 1014.55 1015.62 1016.50 1017.34 1018.28 1019.06 1019.87 1020.35 1020.96 1021.38 1021.87 1022.28 1022.68 1023.08 1023.29 1023.49 1023.66 1024.11 1024.33
1007.03 1007.12 1007.68 1008.06 1008.30 1008.63 1008.95 1009.19 1009.22 1009.26 1009.73 1009.88 1009.92 1010.07 1010.17 1010.33 1010.57 1011.10 1011.27 1011.75 1012.37 1013.01 1013.74 1014.40 1015.32 1016.20 1016.98 1018.10 1018.78 1019.42 1020.14 1020.63 1020.82 1021.03 1021.91 1022.31 1022.95 1023.49 1023.69 1024.20 1024.32 1024.68 1024.96
1007.43 1007.88 1008.27 1008.64 1008.91 1009.15 1009.37 1009.57 1009.70 1009.69 1009.83 1009.85 1010.14 1010.19 1010.47 1010.83 1011.30 1011.68 1011.77 1012.14 1012.77 1013.46 1014.14 1015.00 1015.82 1016.66 1017.47 1018.35 1019.00 1019.68 1020.11 1020.58 1020.71 1020.70 1021.43 1022.10 1022.57 1023.18 1024.10 1024.49 1025.23 1025.21 1025.28
1007.59 1008.05 1008.71 1008.96 1009.29 1009.30 1009.95 1010.05 1009.95 1010.14 1010.31 1010.47 1010.60 1010.84 1011.08 1011.73 1012.07 1012.39 1012.52 1012.77 1013.22 1013.74 1014.48 1015.19 1016.08 1016.77 1017.69 1018.37 1019.18 1019.72 1020.14 1020.39 1020.30 1020.49 1021.01 1021.83 1022.17 1023.09 1023.67 1025.00 1025.60 1025.92 1025.93
1008.29 1008.21 1008.65 1009.17 1009.59 1010.03 1010.47 1010.56 1010.37 1010.30 1010.66 1010.69 1011.06 1011.48 1011.81 1012.29 1012.55 1012.97 1013.28 1013.65 1014.05 1014.39 1014.75 1015.20 1015.98 1016.89 1017.63 1018.35 1018.95 1019.70 1019.87 1019.82 1019.99 1021.05 1021.40 1022.12 1022.61 1023.62 1024.82 1025.81 1026.34 1026.33 1026.24
1008.37 1008.71 1009.26 1009.82 1010.14 1010.43 1010.99 1011.01 1010.84 1010.61 1010.98 1011.32 1011.62 1011.96 1012.18 1012.77 1013.16 1013.49 1013.83 1014.17 1014.73 1015.30 1015.70 1015.93 1016.42 1017.07 1017.58 1018.04 1018.56 1019.10 1019.20 1019.52 1020.33 1020.86 1021.04 1021.65 1022.69 1023.72 1024.93 1025.92 1026.74 1026.71 1026.63
1008.05 1008.48 1009.05 1009.93 1010.42 1010.97 1011.36 1011.39 1011.03 1011.09 1011.61 1011.98 1012.00 1012.65 1012.98 1013.36 1013.73 1013.97 1014.15 1014.66 1015.34 1016.04 1016.58 1016.76 1017.08 1017.57 1018.16 1018.40 1018.54 1018.84 1019.24 1019.22 1019.77 1020.35 1020.95 1021.19 1022.32 1023.47 1024.63 1025.33 1026.31 1026.56 1026.66
1007.76 1008.30 1009.10 1009.96 1010.59 1011.27 1011.63 1011.63 1011.48 1011.39 1011.91 1012.21 1012.19 1013.13 1013.68 1013.96 1014.28 1014.46 1014.57 1014.85 1015.01 1015.76 1016.37 1017.26 1017.90 1018.28 1018.21 1018.86 1018.96 1018.57 1018.65 1018.51 1018.66 1019.50 1020.57 1021.21 1022.24 1022.93 1023.20 1023.73 1024.86 1025.70 1026.21
Wind_Speed
7 7 7 7 7 8 8 7 7 7 8 9 10 9 11 12 11 3 5 13 9 9 10 11 12 16 21 22 21 22 20 19 16 14 12 10 7 13 17 18 17 16 16
7 8 7 9 9 9 8 7 6 6 7 8 8 9 10 9 10 9 7 7 11 9 9 11 13 19 22 23 22 21 19 19 19 16 13 10 13 17 18 17 16 16 15
9 10 8 8 8 8 9 8 8 7 8 7 10 7 8 8 8 9 7 7 7 13 11 12 14 18 25 24 22 21 20 20 21 19 14 13 13 14 17 17 16 17 17
11 9 8 7 7 8 8 9 9 6 8 5 7 5 7 7 9 6 8 7 7 6 13 13 13 16 23 26 24 24 22 20 20 20 18 15 16 18 17 17 18 18 18
11 10 6 5 8 8 7 8 9 6 5 4 5 6 6 8 6 7 8 7 8 5 3 10 14 15 22 22 24 24 25 24 21 19 18 19 18 17 17 17 18 18 17
11 8 7 8 6 6 7 8 5 7 5 5 6 7 6 5 6 4 5 5 5 8 8 10 9 9 21 22 26 28 27 26 23 21 18 20 19 18 18 18 18 18 16
8 7 6 7 7 7 9 7 6 8 5 6 6 4 4 2 5 5 4 3 5 5 6 6 5 7 8 20 23 27 28 27 26 23 21 20 19 19 19 19 18 17 16
7 7 8 7 7 5 8 8 9 5 5 8 8 6 7 5 5 5 4 4 3 2 3 6 8 10 12 9 18 22 27 29 27 25 22 19 19 19 20 19 19 18 14
7 7 7 6 9 8 6 8 8 9 7 8 8 4 4 5 8 4 6 5 5 4 2 4 9 11 10 11 17 20 25 27 27 26 24 21 20 20 20 19 18 18 14
6 5 6 9 9 5 7 7 7 7 7 8 8 7 6 3 9 6 4 5 6 5 4 3 7 11 12 10 17 20 25 26 27 27 25 24 23 22 20 17 17 16 14
3 5 7 9 7 5 7 7 7 7 6 5 5 4 6 3 2 5 9 6 4 4 2 4 8 6 7 9 11 17 24 25 23 24 22 22 22 21 20 17 16 14 12
4 6 7 6 7 6 6 7 7 7 5 4 5 6 3 2 4 3 6 9 6 3 4 6 6 5 5 3 14 22 28 25 21 20 18 17 18 18 18 17 15 12 10
4 7 5 5 5 5 6 6 7 7 5 6 7 6 4 2 1 4 5 7 5 2 3 4 4 5 7 5 12 22 25 22 16 14 15 13 14 15 14 14 13 10 8
5 6 5 6 6 6 6 6 5 5 6 6 8 4 4 2 2 3 6 9 7 4 3 4 3 5 8 11 17 26 15 18 14 11 11 12 12 12 11 10 9 7 6
5 6 6 6 6 6 6 7 4 5 5 6 4 3 2 0 1 2 4 6 8 8 4 5 4 6 9 13 18 13 15 16 13 11 11 12 12 11 11 8 8 8 6
6 7 6 5 6 6 6 6 5 5 6 6 5 4 4 4 5 4 5 2 4 6 5 3 3 9 13 12 17 14 13 14 10 10 11 11 11 10 8 8 7 6 6
8 7 7 6 6 7 7 5 5 6 7 5 4 4 5 4 5 5 4 4 4 5 9 6 6 15 15 17 14 13 10 9 6 10 10 9 9 8 7 7 7 5 4
8 8 7 6 5 5 5 6 5 6 7 6 4 4 5 4 6 4 4 7 7 7 11 14 11 13 13 15 14 13 9 6 6 7 7 9 8 7 7 6 7 7 8
6 8 7 5 5 5 4 3 5 5 6 6 6 6 7 6 7 3 6 7 9 7 9 11 12 11 10 11 11 9 8 7 5 9 10 10 9 9 9 10 11 12 13
7 7 7 6 5 5 6 6 5 7 7 7 5 7 7 7 8 6 6 7 11 10 10 10 11 11 10 9 8 8 6 3 5 9 11 14 11 16 16 15 16 16 15
8 8 7 7 6 5 5 8 6 6 6 7 7 6 5 8 10 5 5 9 11 9 10 11 10 10 9 9 8 5 7 6 6 8 10 9 9 10 10 15 16 16 15
7 9 7 7 7 4 7 4 7 7 7 7 7 6 8 9 10 10 12 11 9 12 12 10 9 11 10 9 7 8 8 8 9 5 9 8 7 7 7 8 13 12 12
3 8 8 8 8 9 6 4 3 8 7 7 9 8 7 7 9 10 13 15 14 13 9 13 13 10 11 9 9 8 9 9 9 9 9 8 7 8 8 9 8 10 11
5 6 7 7 5 8 7 5 3 9 8 7 8 9 10 10 9 10 10 11 11 9 9 6 9 9 9 11 10 8 7 8 9 10 8 8 8 8 8 8 6 9 10
7 7 7 8 6 8 5 6 5 9 9 6 9 9 11 9 8 12 11 12 10 8 9 12 10 9 12 8 9 10 9 10 10 8 7 7 7 7 7 7 7 9 10
8 8 9 9 9 6 5 7 4 7 9 5 10 9 10 9 7 6 10 10 13 12 13 11 9 9 11 7 5 7 8 8 7 5 6 5 8 8 6 7 9 7 7
Wind_Direction
251 261 257 264 259 257 248 246 247 261 260 242 250 226 220 232 236 215 263 158 205 238 255 263 236 207 197 182 171 174 171 169 155 141 150 152 164 151 142 135 123 122 120
247 259 248 248 251 249 250 258 241 250 247 254 233 239 230 215 222 209 232 185 186 224 248 252 239 208 192 174 172 171 171 163 153 142 149 161 186 165 140 132 130 128 130
240 255 263 260 266 259 251 246 244 227 250 237 259 214 226 210 218 222 235 241 184 200 224 239 229 216 196 190 177 175 167 165 156 150 152 185 179 153 139 134 135 136 130
244 247 248 250 245 245 233 231 239 226 241 224 235 221 222 204 215 210 225 238 234 244 189 215 216 209 202 187 186 178 167 158 150 151 151 174 175 156 137 138 141 137 132
238 242 253 241 234 236 225 226 243 235 259 226 216 210 209 218 191 210 219 216 239 252 227 205 201 204 194 184 173 167 157 152 149 154 156 176 169 143 142 143 141 135 134
242 244 244 247 228 226 224 228 224 239 233 203 204 194 218 206 196 187 221 209 220 235 231 223 189 197 194 189 169 162 158 154 158 159 166 163 151 146 142 141 140 137 133
243 240 236 236 220 219 228 214 231 227 211 204 184 176 176 199 191 183 191 179 248 220 238 222 184 170 162 165 181 162 162 159 157 157 157 150 153 143 141 140 138 135 136
240 235 232 225 219 226 221 221 221 211 197 194 196 174 168 169 187 160 189 176 176 225 219 205 167 142 156 170 176 167 166 160 163 150 151 146 146 143 143 143 144 133 133
240 241 223 215 207 232 222 219 218 209 198 191 210 218 199 176 165 181 186 178 170 166 201 212 160 151 149 162 165 169 163 158 154 144 150 147 144 145 146 150 140 131 143
247 233 208 211 218 191 224 213 214 206 211 183 195 224 295 140 188 159 186 167 170 160 145 167 142 139 156 160 162 158 151 149 147 149 149 149 148 146 150 146 140 141 140
236 195 210 200 201 211 209 214 183 194 204 204 203 193 217 194 215 201 161 160 141 98 76 100 86 109 131 147 159 144 147 141 146 143 143 144 150 158 146 150 145 133 153
186 204 198 201 200 196 180 181 181 186 217 202 211 206 223 179 180 170 177 153 117 89 117 93 98 103 85 129 141 145 139 139 133 135 145 150 158 147 154 147 136 149 157
162 163 173 178 172 168 157 165 185 160 210 219 211 209 200 207 285 211 180 141 132 101 79 99 111 127 121 103 123 120 122 120 124 132 142 170 144 150 148 138 144 156 165
191 143 178 173 168 161 168 167 185 190 190 202 178 177 190 235 243 199 186 148 131 142 130 118 118 149 142 135 137 131 125 126 130 139 140 131 135 133 126 134 144 160 122
169 158 167 157 161 166 179 185 175 178 164 123 135 215 232 283 96 145 126 154 155 155 139 167 141 143 148 134 135 136 133 136 128 134 129 137 135 132 131 140 140 132 125
167 160 156 152 154 160 180 180 166 175 155 147 173 150 209 140 143 112 136 170 208 181 146 154 115 131 133 129 129 124 124 124 123 130 133 126 128 118 136 131 127 127 132
166 170 155 158 154 155 171 177 159 163 130 133 164 160 125 147 120 124 120 106 81 119 120 111 98 123 118 122 119 122 126 122 123 121 115 114 117 126 134 135 126 147 124
165 162 163 156 156 152 166 157 165 138 132 146 118 151 140 137 139 167 125 100 87 97 119 117 110 105 110 114 117 112 109 102 101 87 109 106 115 127 124 123 102 97 89
150 159 163 139 160 156 147 136 117 138 127 127 144 146 132 150 129 141 122 126 115 98 109 111 111 115 114 118 113 107 117 106 132 123 98 96 85 92 90 92 95 95 91
141 150 130 163 141 153 143 139 149 119 130 136 149 149 159 138 143 159 126 115 125 123 119 118 118 119 117 118 115 121 114 118 152 122 77 81 89 86 89 94 96 99 93
136 137 143 140 135 135 141 142 143 142 136 131 147 156 134 81 91 86 113 130 127 126 127 126 127 125 127 132 131 113 123 126 133 147 131 135 124 114 107 85 98 95 93
127 127 131 133 137 158 107 123 134 128 134 127 121 113 110 109 88 78 71 88 120 136 134 134 135 136 133 123 120 138 132 147 135 138 125 120 116 107 90 82 88 94 92
102 125 130 128 128 121 119 121 157 131 129 121 119 118 109 104 121 106 88 89 80 82 115 141 139 139 130 139 131 149 162 164 142 141 133 123 126 111 105 106 92 95 89
124 119 126 134 133 134 149 156 261 121 111 115 123 126 116 108 102 105 112 110 92 85 99 110 121 126 137 155 147 152 165 114 118 158 145 140 145 128 116 111 95 96 88
149 155 143 143 140 149 168 181 206 115 119 130 135 120 112 108 96 101 107 112 100 88 70 88 109 134 133 138 162 150 159 156 153 163 195 144 155 138 158 153 141 127 112
143 116 112 127 134 146 184 199 154 134 134 122 122 108 89 107 90 93 123 132 128 131 137 128 118 115 135 129 159 178 175 175 167 144 158 150 152 169 181 168 166 164 160